Home   Weather   Kansas City   Past weeks

Flag for USA Past Weather in Kansas City, Missouri, USA — Yesterday and Last 2 Weeks

56 °F


Feels Like: 54 °F
Forecast: 55 / 77 °F
Wind: 7 mph from East

Location: Kansas City Downtown Airport

Current Time: Oct 25, 2016 at 5:18:56 AM

Latest Report: Oct 25, 2016 at 4:54 AM

Visibility: 10 mi

Pressure: 30.19 "Hg

Humidity: 75%

Dew Point: 48 °F

Location of Kansas CityLocation

Past Weather in Kansas City — Graph


Kansas City Temperature Yesterday

Maximum temperature yesterday: 68 °F (at 3:54 PM)
Minimum temperature yesterday: 48 °F (at 7:54 AM)
Average temperature yesterday: 57 °F

High & Low Weather Summary for the Past Weeks

High88 °F (Oct 17, 1:54 PM)97% (Oct 14, 7:54 AM)30.36 "Hg (Oct 14, 7:54 AM)
Low40 °F (Oct 13, 7:54 AM)38% (Oct 20, 3:54 PM)29.38 "Hg (Oct 17, 4:54 PM)
Average63 °F65%30.02 "Hg
* Reported Oct 10 3:54 AM — Oct 25 3:54 AM, Kansas City, Weather by CustomWeather, © 2016

Note: Actual official high and low records may vary slightly from our data, if they occured in-between our weather recording intervals... More about our weather records


Kansas City Weather History for the Previous 24 Hours

Scroll right to see more
Time TempWeatherWind HumidityBarometerVisibility
3:54 AM
Tue, Oct 25
55 °FOvercast.5 mph74%30.20 "Hg10 mi
2:54 AM54 °FClear.6 mph74%30.21 "Hg10 mi
1:54 AM54 °FClear.6 mph74%30.22 "Hg10 mi
12:54 AM53 °FClear.6 mph74%30.23 "Hg10 mi
11:54 PM
Mon, Oct 24
54 °FClear.6 mph72%30.24 "Hg10 mi
10:54 PM54 °FClear.6 mph72%30.25 "Hg10 mi
9:54 PM55 °FClear.6 mph69%30.26 "Hg10 mi
8:54 PM58 °FClear.7 mph62%30.26 "Hg10 mi
7:54 PM61 °FClear.8 mph56%30.26 "Hg10 mi
6:54 PM61 °FClear.7 mph54%30.25 "Hg10 mi
5:54 PM65 °FSunny.9 mph47%30.24 "Hg10 mi
4:54 PM67 °FSunny.7 mph44%30.25 "Hg10 mi
3:54 PM68 °FSunny.9 mph44%30.26 "Hg10 mi
2:54 PM67 °FSunny.9 mph47%30.27 "Hg10 mi
1:54 PM65 °FSunny.9 mph51%30.30 "Hg10 mi
12:54 PM63 °FSunny.7 mph52%30.32 "Hg10 mi
11:54 AM60 °FSunny.9 mph58%30.35 "Hg10 mi
10:54 AM57 °FSunny.7 mph64%30.36 "Hg10 mi
9:54 AM53 °FSunny.8 mph72%30.36 "Hg10 mi
8:54 AM50 °FSunny.6 mph77%30.35 "Hg10 mi
7:54 AM48 °FSunny.9 mph77%30.34 "Hg10 mi
6:54 AM49 °FClear.9 mph77%30.32 "Hg10 mi
5:54 AM50 °FClear.9 mph71%30.30 "Hg10 mi
Weather by CustomWeather, © 2016

See weather overviewHow to use our weather pages